Tracking 17151 objects as of 5-May-2015
HD Live streaming from Space Station

BREEZE-M DEB

Track BREEZE-M DEB now!
10-day predictions
BREEZE-M DEB is classified as:


NORAD ID: 36958
Int'l Code: 2006-006CQ
Perigee: 409.9 km
Apogee: 13,461.1 km
Inclination: 51.8 °
Period: 254.6 minutes
Semi major axis: 13306 km
RCS: 0.0224 m2 (small)
Launch date: February 28, 2006
Source: Commonwealth of Independent States (former USSR) (CIS)

Note: This is SATELLITE DEBRIS
Your satellite tracking list
Your tracking list is empty





NASA's NSSDC Master Catalog

Two Line Element Set (TLE):
1 36958U 06006CQ  15117.32396510  .00019740  00000-0  11571-1 0  9994
2 36958 051.7514 133.2979 4904064 051.1674 341.3595 05.65597870134944

Source of the keplerian elements: AFSPC

N2YO: 3619